Tracking 19247 objects as of 24-Sep-2018
HD Live streaming from Space Station
objects crossing your sky now

CZ-4B DEB

Track CZ-4B DEB now!
10-day predictions


NORAD ID: 37581
Int'l Code: 1999-025EKE
Perigee: 743.5 km
Apogee: 907.7 km
Inclination: 98.9 °
Period: 101.3 minutes
Semi major axis: 7196 km
RCS: 0.0014 m2 (small)
Launch date: May 10, 1999
Source: People's Republic of China (PRC)
Launch site: Taiyaun Space Center, China (TSC)

Note: This is SATELLITE DEBRIS
aabbcc
Your satellite tracking list
Your tracking list is empty




NASA's NSSDC Master Catalog

Two Line Element Set (TLE):
1 37581U 99025EKE 18266.47529722 +.00000224 +00000-0 +11341-3 0  9991
2 37581 098.8710 258.2371 0114083 093.4682 057.0793 14.22037628841690
Source of the keplerian elements: AFSPC